RH
10 10 11 13 15 15 15 15 15 16 16 17 17 16 15 13 12 10 9 7 6 4 4 3 3 3 2 2 2 2 2 2 2 2 2 2 2 2 2 2 2 3 3 3 3 4 4 4 4 4 5 5 5 5 4 4 4 3 3 2 2 2 2 2 2 2 2 2 2 2 2 2 2 2 2 4 5 5 5 7 6 9 12 12 15 22 31 37
9 8 8 8 10 11 11 11 11 10 10 10 10 9 9 8 8 6 5 4 4 4 3 3 3 3 3 2 2 2 2 3 3 2 2 2 2 2 2 3 3 3 3 4 4 4 4 5 5 5 5 5 5 5 4 4 4 3 3 3 3 2 3 2 2 3 2 2 2 2 2 2 2 3 3 4 8 9 6 8 10 11 15 19 20 25 34 40
12 10 8 7 7 8 8 9 8 8 7 7 6 6 6 5 5 4 4 3 3 3 3 3 3 3 3 3 3 3 2 3 3 3 3 2 3 3 3 3 3 4 4 4 5 5 5 5 5 5 5 5 5 5 4 4 4 4 3 3 3 3 3 3 3 3 2 2 2 2 2 2 2 3 4 4 7 9 7 9 14 15 17 23 25 26 35 40
21 17 13 10 8 8 7 7 7 6 6 5 5 5 4 4 4 4 3 3 3 3 3 3 3 3 3 3 3 4 4 4 4 4 3 3 3 3 3 4 4 4 4 5 5 5 6 6 6 6 5 5 5 5 4 4 4 4 4 3 3 3 3 3 3 3 3 2 2 2 2 2 2 3 5 6 7 11 15 15 15 17 20 24 27 28 33 37
30 27 24 19 16 14 12 10 8 7 6 6 5 5 4 4 4 4 4 4 4 4 4 4 4 4 4 4 4 3 4 4 4 4 4 3 3 4 4 4 5 5 5 6 6 6 6 6 6 6 6 6 5 5 4 4 4 3 3 3 3 3 3 3 3 3 3 3 3 2 2 2 2 4 5 7 7 10 19 22 19 21 25 27 26 26 27 28
36 35 33 31 28 26 23 20 16 12 9 7 6 6 5 5 5 4 4 4 4 4 5 4 5 5 5 5 5 5 4 4 5 5 4 4 4 4 4 5 5 6 6 6 7 7 7 7 7 6 6 6 6 5 4 4 4 4 4 4 4 4 4 4 3 3 3 3 3 3 3 3 3 5 5 7 9 9 13 18 20 22 26 32 33 29 27 26
39 40 39 38 37 35 34 31 28 24 19 14 11 8 7 6 6 5 5 5 5 5 6 6 6 6 7 6 6 6 5 5 6 6 5 5 5 5 5 5 6 6 7 7 8 8 8 8 7 7 7 6 6 5 5 4 4 4 4 4 4 4 4 4 3 3 4 3 3 3 3 3 4 5 7 9 11 13 15 17 19 23 31 40 40 36 33 32
40 42 42 41 41 39 38 37 35 33 29 26 21 17 12 9 7 6 7 7 7 7 7 8 9 10 10 9 9 8 8 7 6 6 6 5 5 6 6 7 7 7 8 9 9 9 9 9 8 8 7 7 6 5 5 5 5 5 4 5 4 5 4 4 4 4 4 4 3 4 4 4 5 6 9 12 15 18 22 24 23 25 34 40 38 37 38 38
40 41 42 42 42 41 40 39 37 35 33 32 30 27 23 18 13 10 8 7 7 7 8 8 9 10 11 10 10 10 9 8 6 6 5 6 6 6 7 7 8 8 9 10 10 10 10 10 10 9 8 8 7 6 5 5 6 5 5 5 5 5 5 5 5 4 4 4 4 5 5 5 6 8 12 16 20 25 31 33 30 30 34 37 39 42 43 42
38 41 43 43 43 42 41 40 37 35 33 32 31 30 29 27 24 19 14 11 8 7 7 7 7 7 7 7 7 7 7 7 7 6 6 6 6 6 7 7 8 9 10 10 11 11 12 12 11 10 9 8 7 6 6 6 7 7 6 6 6 6 6 7 6 5 5 5 6 7 6 6 8 12 16 21 26 31 40 41 36 36 39 41 44 46 47 46
36 40 43 44 44 44 42 40 37 33 31 29 29 29 30 29 28 27 24 20 15 11 9 7 7 7 7 6 6 6 6 7 7 7 7 7 7 7 7 8 9 9 9 10 11 12 12 12 12 11 10 8 8 7 7 7 7 7 7 7 7 7 7 8 6 5 6 7 7 6 8 9 12 18 20 25 32 35 43 47 43 43 44 47 50 51 53 49
34 39 42 45 46 46 44 42 37 32 28 25 24 25 26 27 28 28 27 26 23 19 15 11 9 8 7 7 7 7 7 8 8 8 8 8 8 8 8 8 8 9 9 9 10 11 12 12 12 11 10 9 9 8 8 9 8 8 8 8 8 8 8 8 7 6 6 7 7 7 10 13 18 29 30 28 36 38 42 48 47 48 48 50 56 56 54 48
32 37 42 45 47 48 48 45 40 34 29 24 21 20 21 23 24 25 26 27 26 25 22 17 13 10 9 8 7 8 8 8 8 8 8 8 8 8 8 8 8 9 9 9 9 10 11 12 11 11 10 9 8 8 9 9 9 10 10 10 10 10 9 8 8 7 7 7 6 7 14 28 36 38 39 37 42 44 44 47 46 49 53 56 60 56 52 48
31 35 40 44 48 50 50 49 45 39 32 25 21 18 18 19 20 21 23 25 26 26 25 23 19 16 14 12 11 9 8 8 8 8 8 8 8 8 8 8 8 8 8 9 9 9 11 11 11 10 9 9 8 8 9 9 10 10 11 12 12 13 11 8 10 8 8 7 7 9 16 38 46 37 44 50 50 51 48 47 46 49 55 60 62 56 53 52
29 33 38 43 47 50 52 52 49 44 36 27 21 18 16 17 17 18 19 21 23 25 25 25 24 22 21 19 17 15 13 13 12 11 10 10 10 9 9 8 8 8 8 9 9 9 10 10 11 10 10 9 8 8 9 9 11 11 12 14 14 15 12 11 13 10 9 8 9 12 16 32 35 26 43 59 58 59 55 49 48 49 56 62 63 59 57 54
29 32 36 41 46 50 53 54 52 47 38 29 22 18 16 16 16 16 17 18 20 21 22 24 23 23 23 21 20 19 19 18 17 16 14 14 13 11 10 9 9 9 9 8 8 9 9 10 10 10 10 9 8 9 9 10 13 14 14 17 18 17 14 13 14 12 11 11 11 14 18 26 25 19 37 58 63 64 60 56 54 53 57 62 62 58 57 53
30 32 35 40 45 50 53 55 54 48 40 31 24 21 20 19 17 16 17 17 18 19 20 21 20 20 21 19 18 19 19 18 18 17 16 15 14 12 11 10 10 9 8 8 8 8 8 9 9 9 10 9 9 9 11 14 15 16 17 19 20 19 18 17 15 14 14 13 12 15 19 23 21 18 28 46 62 68 65 62 61 61 62 63 60 56 56 52
31 32 35 39 44 49 54 57 56 50 42 33 26 25 24 24 22 19 18 17 18 19 19 19 17 17 18 15 15 15 15 16 16 15 15 15 14 13 12 12 11 10 9 8 8 8 8 8 8 9 9 9 10 10 14 17 15 19 23 24 22 20 21 20 17 17 17 16 14 15 19 23 23 21 23 30 46 62 68 67 66 65 64 63 59 55 55 51
33 33 35 39 44 49 54 58 57 52 44 35 29 27 28 28 26 22 19 18 20 20 19 19 18 18 16 13 14 13 13 15 15 14 14 14 14 14 14 13 13 11 10 8 8 8 8 9 9 9 9 10 11 12 14 14 15 22 28 29 27 24 22 22 21 20 18 19 17 17 20 23 24 24 24 24 29 42 54 63 66 66 65 64 61 56 54 52
35 35 36 40 44 49 56 59 58 53 45 37 31 30 30 31 29 25 21 20 19 19 20 21 20 20 16 14 15 14 14 15 15 16 15 14 14 14 14 14 13 12 11 10 9 8 8 9 9 9 10 10 10 12 12 11 16 22 28 32 33 30 25 22 24 22 20 21 21 21 21 22 24 25 25 24 24 27 33 42 49 54 58 59 58 55 54 54
37 37 38 41 45 50 57 60 59 54 47 40 34 32 33 32 31 30 27 24 20 19 21 21 21 20 17 16 16 14 14 15 16 17 16 16 15 14 14 14 13 12 11 10 9 8 8 9 9 10 10 10 10 10 10 11 15 20 26 31 33 32 26 23 26 25 22 22 24 24 23 23 24 25 25 24 25 24 24 27 29 34 40 42 44 45 47 50
42 41 41 44 48 53 59 62 61 55 47 41 36 35 34 31 30 30 30 29 25 22 23 22 22 20 16 16 16 13 13 15 17 17 17 17 16 15 15 14 13 13 12 11 9 8 8 9 10 11 10 10 10 10 10 11 14 22 28 30 30 28 23 24 27 27 25 23 25 26 24 24 25 25 25 24 24 24 24 24 24 25 27 29 33 36 41 43
49 47 47 49 53 58 63 63 60 54 47 41 38 38 34 30 30 31 31 30 26 25 26 26 25 23 18 17 17 14 16 18 18 18 17 17 16 16 15 14 14 13 12 12 10 10 9 9 11 11 11 11 11 11 10 11 15 22 29 32 33 27 22 27 26 25 28 26 26 27 25 26 25 25 25 24 24 24 24 24 23 23 23 23 25 30 35 38
55 54 55 58 61 63 64 62 58 52 46 42 39 38 35 32 33 33 33 31 25 23 26 27 26 25 22 21 20 18 20 22 21 20 19 18 17 17 16 15 14 13 13 12 11 10 9 10 11 11 12 11 11 11 10 12 16 22 28 33 35 28 22 26 24 23 29 31 29 28 27 27 26 26 25 24 25 24 24 24 23 22 22 22 22 24 25 29
65 65 66 67 67 65 63 60 56 51 46 43 41 38 37 35 35 35 33 30 24 22 24 24 24 24 22 21 20 19 22 23 22 22 21 20 19 17 17 16 15 14 13 12 11 10 10 11 13 13 13 12 12 11 10 12 17 23 29 30 30 25 21 24 24 22 28 35 36 34 30 28 27 27 25 25 25 24 23 23 23 22 22 22 21 21 22 26
74 73 73 72 69 65 62 59 55 50 46 45 43 39 38 36 37 36 32 29 26 23 22 22 22 21 20 20 20 19 20 21 21 22 21 21 20 19 18 17 16 15 14 13 11 11 10 12 15 14 13 13 12 11 11 13 18 26 29 27 24 22 20 22 25 28 33 36 36 37 37 33 29 27 26 26 24 24 24 22 23 22 21 22 21 21 21 28
78 76 75 72 68 64 62 58 53 48 46 46 43 39 38 36 36 34 30 28 26 24 23 22 21 20 19 19 19 19 19 20 20 20 20 21 20 19 19 18 17 16 15 14 13 13 13 14 16 15 14 14 12 12 12 12 21 28 27 25 26 26 24 22 24 34 42 39 33 36 40 36 29 27 29 31 28 24 24 23 23 22 22 22 21 21 21 28
79 76 74 70 66 63 60 56 51 47 45 44 41 39 38 35 33 31 29 28 26 24 24 24 22 21 21 21 20 20 20 20 20 19 19 20 20 19 19 18 17 16 15 14 14 15 16 14 14 15 14 13 14 16 12 12 23 31 28 29 30 30 29 26 27 35 41 42 39 37 40 38 31 26 30 34 30 26 25 24 23 22 23 23 21 22 23 28
76 73 70 67 64 61 58 55 50 47 43 41 39 38 36 34 32 30 29 29 27 26 26 26 25 24 24 23 23 22 22 22 21 20 20 19 20 20 19 19 17 16 15 15 14 14 16 14 12 14 14 14 18 18 12 14 27 33 33 34 34 33 31 30 32 34 35 40 43 38 37 42 36 27 32 37 30 28 29 25 22 22 22 23 21 21 23 27
72 69 66 63 59 57 55 52 48 44 40 37 36 34 32 32 32 32 32 31 30 30 29 29 28 27 27 26 25 24 24 25 23 22 22 20 20 20 19 19 18 17 16 15 14 14 16 15 14 15 17 18 19 16 12 18 32 40 41 41 39 37 34 33 34 35 34 38 42 38 34 40 37 30 40 49 40 33 29 23 21 22 22 21 21 21 23 24
67 64 61 56 52 51 50 46 43 40 37 35 33 32 32 33 34 34 35 34 33 33 32 32 31 30 31 31 29 27 26 26 25 24 24 23 22 21 20 19 18 18 17 15 16 17 19 19 18 19 21 22 19 16 17 25 38 46 47 48 45 42 39 35 33 34 36 36 36 36 37 40 37 36 45 47 39 33 27 23 23 22 21 20 20 21 22 22
60 56 52 48 45 45 44 41 39 38 36 34 34 35 36 37 38 38 38 37 35 34 33 33 33 33 33 33 32 30 30 30 29 28 27 26 23 21 20 19 19 19 18 19 21 22 24 24 24 23 23 24 22 20 22 31 43 47 47 50 47 44 45 40 37 39 39 35 33 34 40 40 35 38 41 35 31 32 27 24 27 27 23 19 19 19 20 20
54 49 45 42 40 40 39 40 40 40 38 38 39 40 42 42 43 43 42 39 37 35 34 34 34 34 34 34 32 32 33 33 33 32 32 30 25 22 20 19 19 19 23 28 29 27 29 29 27 26 26 27 26 26 31 39 47 48 48 49 43 44 48 41 37 40 40 41 41 37 39 39 33 32 34 29 29 32 30 29 33 34 31 25 21 21 22 22
53 49 45 44 44 43 44 45 45 45 45 45 46 46 46 46 45 43 41 40 37 36 36 35 34 34 35 34 33 33 34 34 34 33 34 32 28 24 21 19 19 19 24 34 35 31 31 31 30 29 29 30 30 34 42 47 48 49 49 48 44 45 51 48 46 50 52 56 57 47 38 36 35 35 32 28 27 27 32 40 42 42 41 38 34 31 32 31
58 56 55 55 55 54 54 54 53 52 51 50 50 49 47 46 44 42 39 38 37 36 36 36 35 34 36 36 36 36 36 36 35 35 35 34 30 26 21 19 21 20 22 30 33 31 31 32 33 32 31 34 39 43 46 47 48 48 47 47 47 47 50 53 56 58 57 61 64 57 44 35 35 37 34 31 28 26 34 47 49 46 46 46 44 42 42 40
64 64 64 65 65 62 62 61 59 57 54 52 50 47 46 44 40 38 36 35 34 35 35 34 35 36 37 38 39 39 38 38 39 39 37 35 32 29 24 21 21 22 24 27 28 30 34 34 32 33 36 39 44 47 46 46 47 50 50 47 46 48 48 52 56 50 43 46 53 49 44 41 35 30 33 35 34 32 38 49 49 47 49 49 48 49 48 47
70 71 71 70 68 66 64 62 59 56 52 50 46 42 41 38 35 32 30 28 29 30 31 31 32 34 35 37 40 42 40 40 42 42 43 43 37 33 30 25 22 21 23 25 28 31 36 39 36 36 38 41 45 47 47 45 45 55 64 57 53 54 49 48 54 53 45 45 47 40 38 47 46 37 34 34 37 46 52 56 54 50 50 51 50 51 51 51
75 74 72 70 66 63 60 57 54 49 44 41 37 33 31 28 26 23 21 20 20 22 24 25 26 28 32 33 37 43 43 44 46 46 50 55 52 47 39 31 29 28 26 26 30 33 37 44 45 39 37 41 45 47 49 48 45 52 63 66 68 66 59 52 47 47 51 48 50 50 41 41 45 43 41 41 46 63 72 67 63 60 57 57 56 54 55 55
76 73 69 65 61 57 53 48 43 36 31 27 24 22 20 17 15 14 13 12 12 14 15 17 18 20 24 28 32 40 44 48 53 52 51 57 62 62 53 41 39 42 41 38 37 39 43 48 51 45 37 40 46 46 48 52 52 49 51 62 69 64 69 78 61 50 62 64 65 69 57 50 52 45 42 47 55 73 83 75 68 69 67 65 62 60 59 59
74 69 61 55 51 46 40 34 28 22 18 15 13 13 12 10 9 8 8 8 7 8 8 9 11 11 15 20 24 32 39 46 54 56 56 59 65 72 71 62 56 57 59 55 49 49 48 46 50 49 42 41 46 48 49 56 63 57 49 58 68 60 63 76 65 55 69 80 84 83 71 69 73 58 42 45 59 78 85 80 79 80 74 68 65 64 62 62
70 61 49 43 37 29 23 19 15 12 11 10 9 9 8 7 7 6 7 6 6 7 6 5 6 6 8 11 14 22 32 41 48 50 55 61 67 75 81 79 74 70 69 65 60 56 50 46 48 49 50 50 49 48 49 55 65 66 63 72 82 74 62 64 67 62 60 67 79 83 76 76 78 65 53 56 71 83 84 83 87 87 81 75 71 69 66 63
62 48 34 29 22 15 13 12 11 10 10 9 8 8 7 7 7 6 6 6 6 6 6 5 6 5 5 7 10 11 16 32 43 44 51 61 65 71 81 86 85 81 76 70 65 62 57 55 53 51 57 61 56 53 52 53 57 64 71 76 79 74 65 69 83 82 70 62 64 69 70 72 74 68 62 67 77 82 83 84 85 84 83 83 80 79 76 70
45 31 21 17 14 11 12 12 11 10 9 9 8 8 7 6 6 6 5 6 5 5 6 5 5 6 5 5 6 4 9 28 39 41 50 61 61 64 78 91 94 92 89 80 69 64 62 60 58 59 64 65 60 57 55 53 54 58 61 60 61 64 63 66 75 80 81 73 67 72 70 64 69 67 61 66 74 78 83 84 83 83 85 84 81 78 76 73
26 19 15 14 12 11 12 11 10 10 8 8 8 7 7 6 5 5 5 5 6 5 5 5 5 6 6 5 6 5 6 16 28 35 45 56 63 67 76 88 93 95 97 92 82 75 67 61 59 63 65 62 58 57 54 53 55 55 55 55 56 58 60 64 68 71 74 67 64 79 83 72 71 68 58 60 64 68 72 73 73 76 78 78 77 72 70 69
16 14 14 13 12 11 11 10 10 10 9 8 8 6 6 5 5 5 5 5 6 5 5 5 5 5 6 5 7 6 4 10 22 30 33 41 55 67 76 82 82 83 85 86 90 89 79 68 65 65 62 60 61 62 60 60 60 54 53 57 58 56 59 67 72 71 69 61 57 66 75 77 78 75 68 65 65 66 65 62 61 61 59 59 60 59 58 54
15 14 12 12 11 10 10 11 10 10 9 8 8 7 6 6 5 5 5 5 6 6 5 6 6 6 6 6 6 6 8 15 22 19 16 24 36 51 69 76 74 74 74 74 82 89 83 76 74 71 67 64 68 72 69 67 71 67 58 55 54 54 58 64 69 72 69 63 60 59 62 70 75 77 81 80 77 77 73 65 60 54 49 46 46 45 43 44
14 13 12 12 12 11 12 12 11 10 9 8 8 7 6 6 5 5 5 6 6 7 8 8 8 8 9 8 7 7 8 14 20 15 8 13 22 32 51 66 70 72 71 67 71 81 85 86 83 78 76 72 72 77 74 68 71 73 65 56 52 54 63 70 74 76 72 68 66 60 57 64 68 72 81 84 82 83 79 72 66 58 50 44 41 41 42 50
13 13 13 14 14 14 13 12 11 10 9 9 8 7 6 5 5 5 7 7 9 10 11 14 14 15 16 15 13 14 13 15 25 24 10 8 17 23 32 46 54 60 65 65 63 67 76 81 81 82 85 83 77 76 75 69 65 64 62 58 55 57 64 73 78 77 71 69 73 70 66 69 71 71 76 79 82 84 82 77 73 68 60 50 46 49 50 54
13 15 15 15 15 15 13 12 12 11 10 10 8 6 6 5 5 6 8 10 12 12 13 16 18 19 21 20 18 20 21 21 27 25 11 6 13 15 17 28 42 49 54 59 60 61 64 67 74 84 89 89 88 82 75 70 64 58 56 55 56 60 64 70 78 80 74 69 71 75 76 77 77 75 73 73 76 83 85 80 75 77 77 69 65 67 64 59
16 17 18 17 16 15 14 14 13 12 11 10 8 7 5 5 5 7 11 14 17 19 18 17 18 19 21 22 23 24 23 22 22 18 11 8 10 8 10 29 57 63 51 53 67 70 66 66 73 84 88 91 96 94 84 76 70 62 58 56 56 60 65 69 75 81 79 73 71 76 84 87 85 80 76 73 71 75 79 75 71 78 85 81 76 76 71 66
20 19 19 19 17 17 16 16 14 13 12 10 8 7 5 6 8 10 15 20 23 25 25 22 22 22 21 20 21 23 23 23 23 22 17 12 9 8 6 18 49 67 64 72 87 82 72 73 79 86 89 89 92 96 95 89 80 70 65 64 62 61 62 67 73 78 79 76 74 79 87 91 89 85 83 82 78 77 77 71 63 67 75 77 74 70 67 66
21 20 20 19 20 19 17 17 16 15 13 11 8 6 5 8 11 15 21 25 25 27 27 25 23 20 20 21 19 18 19 21 24 28 26 18 13 11 7 6 19 43 69 89 95 89 86 88 90 90 86 79 78 86 96 100 92 81 76 74 71 66 61 59 62 68 72 72 73 79 86 90 91 91 91 90 90 90 86 78 67 60 58 62 64 61 59 61
Wind_Speed
35 35 35 35 34 34 33 33 33 32 32 33 33 33 33 34 34 34 34 34 34 33 33 33 32 32 32 31 31 31 31 30 31 30 30 30 30 30 30 30 30 30 29 29 28 28 27 27 27 26 26 26 26 26 26 26 26 26 26 26 26 26 26 27 28 29 30 30 30 30 30 30 30 30 30 30 30 30 31 31 29 30 31 32 32 31 31 31
33 33 33 33 33 33 32 32 31 31 31 31 32 32 32 33 33 33 33 33 33 32 32 32 31 31 31 31 31 31 30 30 30 30 30 29 30 30 30 29 29 29 28 28 28 27 27 26 26 26 25 25 25 25 26 26 26 27 27 27 27 27 27 27 28 28 29 30 29 29 30 30 30 30 30 30 29 30 30 30 30 30 31 32 32 32 32 32
31 31 31 31 31 31 31 31 30 30 30 30 31 31 31 32 32 32 32 31 31 31 31 31 31 30 30 30 30 30 30 29 29 29 29 29 29 29 29 29 28 28 28 27 27 26 26 26 25 25 25 25 25 25 26 26 27 27 27 27 28 27 27 27 27 28 29 29 29 29 29 29 30 29 30 30 29 30 31 31 31 32 32 33 33 34 33 33
29 29 29 29 29 29 29 29 29 29 30 30 30 30 30 31 31 31 31 31 30 30 30 30 30 30 30 29 30 30 29 29 29 29 29 29 29 29 28 28 28 27 27 26 26 26 25 25 25 24 24 25 25 25 26 26 26 26 26 27 27 27 27 27 27 28 29 29 29 28 28 29 29 29 29 30 29 29 30 32 34 34 33 34 35 35 34 34
28 27 27 27 26 26 26 26 27 28 28 29 29 30 30 30 30 30 30 30 30 30 30 29 29 29 29 29 29 29 29 29 29 28 29 29 28 28 28 27 27 26 26 25 25 24 24 24 24 24 24 24 25 25 25 25 26 26 26 27 27 26 26 26 26 27 28 28 28 27 28 28 29 29 30 30 30 31 31 32 34 34 34 35 35 35 35 35
27 26 26 25 25 24 24 24 25 25 27 27 28 29 30 30 30 31 30 30 30 30 29 29 29 28 28 28 28 28 28 28 28 28 28 28 28 27 27 26 26 25 25 24 24 23 23 23 23 23 24 24 25 25 25 25 26 26 26 27 26 26 26 26 26 26 27 27 27 27 27 28 29 30 30 30 31 31 32 32 34 35 35 34 34 34 35 35
28 27 26 26 25 25 24 24 24 25 25 26 26 27 28 29 30 30 30 30 30 30 29 29 28 28 28 28 28 27 27 27 27 27 27 27 27 26 26 25 25 25 24 24 23 23 22 22 23 23 23 24 24 25 25 25 26 26 26 26 26 26 25 25 25 25 25 26 27 27 27 29 29 30 30 30 30 30 30 32 33 34 35 35 35 35 35 35
29 28 27 27 26 26 25 25 25 26 26 26 25 26 26 27 29 29 30 30 30 30 30 30 29 29 29 28 28 28 27 27 27 27 27 26 26 26 25 25 24 24 24 23 23 22 22 22 22 22 23 23 24 24 25 25 25 25 25 25 25 23 23 22 22 22 24 26 27 27 28 29 30 30 30 29 30 30 30 31 32 34 35 35 35 34 34 33
30 29 28 28 28 27 27 27 27 28 28 28 27 26 26 26 27 28 28 28 29 29 29 29 29 29 29 29 29 29 28 27 27 27 26 26 26 25 25 25 24 24 24 24 23 22 22 22 22 22 23 23 24 24 24 24 24 24 24 24 23 21 21 20 20 21 23 25 27 28 29 30 31 30 29 29 29 30 30 31 32 33 34 34 34 33 32 31
30 30 29 29 29 28 28 28 29 30 30 30 30 29 28 27 27 27 26 26 26 27 27 28 28 28 29 29 29 29 28 27 27 26 26 26 25 25 25 25 25 25 25 24 23 22 22 22 22 23 23 23 23 24 24 23 23 23 23 23 22 21 19 18 19 21 22 25 27 28 30 31 32 31 29 29 30 30 30 31 33 33 34 33 33 32 31 31
30 30 30 29 29 29 29 29 30 31 32 33 33 32 31 30 29 28 27 26 25 25 26 26 27 27 28 28 28 28 27 26 26 26 26 25 25 26 26 26 26 25 25 24 23 23 22 22 23 23 23 23 23 23 23 23 22 22 21 21 21 20 18 18 20 21 23 25 27 29 31 32 32 31 30 29 30 31 31 32 34 34 34 33 32 31 31 32
31 30 30 29 29 29 29 29 30 31 32 33 34 34 34 33 32 31 29 27 26 25 25 25 25 26 27 28 27 27 26 26 26 26 26 26 26 26 27 26 26 25 25 24 24 23 23 23 23 23 23 23 24 23 22 22 21 21 21 20 20 19 18 18 20 22 24 26 27 30 31 33 33 32 32 31 31 32 32 33 35 35 35 33 31 30 30 31
31 31 30 29 29 29 28 29 29 30 31 32 33 34 34 34 34 34 32 30 28 27 25 24 24 25 26 27 26 26 26 26 26 26 27 26 26 27 27 27 27 26 26 25 24 24 23 23 23 23 23 23 23 22 22 21 22 21 21 20 19 19 19 19 20 22 24 26 28 30 30 30 33 34 34 33 32 32 33 34 35 35 34 31 29 29 29 30
32 31 31 29 28 28 27 28 28 28 29 30 31 32 33 33 34 34 34 32 30 29 27 26 25 25 25 27 26 25 26 26 26 26 26 27 27 28 28 28 28 27 26 26 26 25 25 25 24 24 24 24 23 22 22 22 22 21 20 20 19 18 21 20 19 22 25 27 29 31 31 29 35 38 36 34 32 32 33 34 35 34 33 30 27 28 27 26
32 32 31 30 28 27 27 27 28 28 28 28 29 29 30 31 32 33 33 32 31 30 30 29 28 28 28 30 28 25 25 26 26 27 27 28 29 29 29 28 28 28 28 28 27 27 26 26 26 26 25 25 24 23 23 22 22 22 20 20 18 19 21 19 20 23 25 28 29 32 30 30 37 40 36 34 33 33 33 34 34 33 32 27 24 24 23 23
32 32 31 30 28 27 27 27 27 27 27 27 27 27 28 29 30 31 31 31 31 31 32 31 31 31 31 33 33 28 27 29 30 29 29 30 30 30 30 29 29 29 29 28 28 28 27 27 27 27 26 25 24 23 23 23 22 21 20 19 18 20 21 20 21 23 25 28 30 31 30 32 39 39 35 36 34 33 33 34 34 32 31 26 23 24 21 21
32 32 31 30 29 28 27 27 27 27 27 27 26 26 25 26 27 28 29 29 30 30 31 31 33 33 32 34 34 31 30 30 32 32 31 31 32 32 31 30 30 30 29 28 28 28 28 28 28 27 27 25 24 24 23 22 22 21 21 20 19 20 20 21 23 23 24 27 29 31 32 34 37 36 35 37 36 34 33 33 33 32 30 27 25 25 21 21
32 32 32 31 29 28 27 27 27 27 27 27 26 25 24 24 25 26 27 28 28 28 29 30 32 32 32 33 33 33 32 30 31 32 32 32 32 32 31 31 30 30 29 29 28 29 29 28 28 28 27 26 25 24 23 23 23 22 21 21 20 20 20 22 23 23 24 26 29 31 32 31 33 34 34 37 38 37 35 34 34 33 30 28 26 25 22 21
31 32 32 31 29 28 28 27 28 28 27 27 26 25 23 23 23 25 26 26 27 28 29 29 29 30 31 31 31 32 32 30 29 30 31 31 31 31 31 31 30 29 29 28 29 29 29 29 29 28 26 25 24 23 24 25 24 22 21 21 21 21 22 23 23 23 24 25 28 30 31 30 32 33 33 36 38 39 39 38 36 34 31 29 28 27 25 23
31 31 31 31 30 29 28 28 28 28 28 28 27 25 23 23 23 24 25 25 26 27 27 27 27 28 30 29 29 30 30 29 29 28 29 29 30 30 29 29 28 28 28 29 29 29 29 30 29 27 25 26 25 25 27 26 24 23 23 23 23 22 23 23 23 24 25 25 26 28 30 31 30 30 32 35 36 38 38 38 38 36 34 31 30 30 28 28
31 31 31 31 30 29 28 28 28 28 29 28 27 26 24 23 24 24 24 24 25 25 25 25 26 27 28 28 28 29 30 30 28 27 26 27 29 28 27 26 26 27 28 29 29 28 29 29 27 26 26 26 26 27 27 25 25 24 24 24 24 24 24 23 23 25 26 26 25 27 29 30 29 29 32 33 34 35 36 35 35 34 33 32 31 31 30 31
30 31 31 30 30 29 28 28 29 29 29 29 27 26 25 25 24 24 24 24 25 24 24 24 25 26 27 27 28 29 29 28 25 25 25 26 27 26 25 25 26 27 28 29 29 29 29 28 27 27 27 27 27 27 26 25 24 24 25 25 24 25 25 23 24 26 26 26 26 28 30 29 28 29 31 31 31 33 33 33 32 32 32 30 29 29 29 31
30 30 30 30 29 29 28 29 29 29 29 29 28 26 25 26 25 24 23 24 26 25 24 24 24 25 27 27 26 27 26 24 24 24 24 25 25 24 24 24 25 27 28 28 28 28 29 28 28 28 28 27 27 26 26 25 25 26 26 25 24 26 24 23 26 26 27 27 27 29 30 28 27 27 28 28 29 30 31 30 30 31 31 29 28 28 29 30
30 30 30 30 29 29 29 29 29 29 29 28 28 26 26 26 25 24 23 24 27 26 24 24 25 25 26 25 25 27 25 24 24 24 24 25 25 24 24 25 26 27 27 27 27 28 29 29 28 28 27 27 27 26 26 26 26 27 26 25 25 24 23 24 27 27 27 28 27 28 29 27 25 25 25 27 27 27 28 28 27 28 29 29 29 29 28 28
30 30 30 30 30 29 29 29 29 29 29 28 27 26 26 25 24 23 23 23 27 27 25 24 25 25 26 26 26 26 25 24 24 24 25 25 25 25 26 26 27 27 26 27 27 28 29 28 27 27 27 26 26 26 26 27 27 27 25 24 24 24 23 26 28 28 27 28 28 28 27 25 24 24 25 26 24 23 26 26 25 25 28 30 29 27 26 27
30 30 29 29 29 29 28 28 28 28 28 27 27 26 26 25 24 23 23 23 26 27 25 25 25 25 26 26 26 26 26 24 23 24 25 24 25 26 27 28 28 27 27 27 28 29 29 26 25 26 26 26 25 25 26 26 26 25 24 24 24 24 24 26 28 28 27 28 30 28 23 22 25 26 25 24 22 21 24 23 23 25 27 28 27 26 26 27
28 28 27 27 28 28 28 28 28 28 28 27 27 26 25 25 24 23 23 24 26 27 26 25 25 25 25 26 26 26 26 23 22 24 23 23 25 26 27 28 27 26 26 27 28 27 25 24 25 26 25 25 24 24 25 25 25 24 24 25 24 23 24 25 27 28 28 30 31 27 23 22 24 24 24 24 21 20 22 21 23 25 26 26 25 25 26 28
26 26 26 26 27 27 27 27 28 28 27 27 26 26 25 24 24 23 23 24 26 27 26 26 25 25 25 25 25 26 25 23 23 22 22 24 25 26 27 27 25 26 27 27 28 26 24 25 26 26 25 25 23 23 24 25 25 25 25 25 23 23 23 23 25 27 29 30 29 28 26 22 21 23 23 22 19 19 21 22 24 26 26 27 26 26 27 30
24 24 25 25 25 26 26 26 27 27 26 26 26 26 25 24 24 23 24 24 25 26 26 26 26 25 24 24 24 25 24 23 23 22 22 24 25 26 26 25 26 28 28 28 29 27 26 27 28 27 28 24 22 23 26 26 26 25 24 22 21 21 21 23 24 26 29 29 27 28 27 21 19 23 24 21 19 20 21 23 24 25 26 27 28 27 28 31
23 24 24 24 24 25 26 26 26 26 26 26 26 25 25 24 24 24 24 24 24 25 26 26 26 25 24 23 23 24 23 23 22 22 23 24 24 25 25 26 27 28 28 29 29 28 26 27 28 27 26 22 22 25 27 26 25 23 22 21 20 20 21 22 23 25 27 26 25 28 27 22 19 21 23 22 20 19 19 21 23 23 25 28 28 28 30 32
22 23 23 23 24 25 25 25 25 25 25 25 25 25 24 24 24 24 23 23 24 25 26 26 26 25 23 22 22 22 23 23 22 22 23 23 24 25 25 27 27 27 28 28 28 26 25 26 26 24 22 21 22 25 26 25 24 22 22 21 20 20 21 22 22 23 23 23 26 27 26 25 21 20 23 22 16 15 17 20 21 21 24 28 29 30 32 32
22 22 22 23 23 24 24 24 23 24 25 25 24 24 24 23 23 23 22 22 24 26 26 26 25 24 23 21 21 21 22 23 22 23 23 23 24 24 25 26 26 26 27 26 24 23 23 24 24 23 22 22 23 25 26 24 23 22 22 21 20 21 22 22 21 21 19 22 26 24 24 25 22 23 24 20 15 15 17 19 20 19 20 24 28 29 29 27
21 21 22 21 22 22 22 22 22 23 23 23 23 23 23 23 22 21 21 23 25 25 24 24 24 23 22 22 22 22 22 23 22 23 23 23 24 24 25 26 25 25 25 24 23 23 24 24 23 23 22 22 23 24 23 21 21 22 23 22 21 21 22 20 19 20 19 22 25 23 23 23 21 25 24 19 19 17 17 19 19 17 16 18 22 24 24 24
20 20 20 20 20 21 21 21 21 22 22 23 23 23 23 22 21 20 22 23 24 24 22 22 23 22 21 22 22 22 22 23 22 22 22 23 24 24 25 26 26 27 27 25 24 25 25 24 23 22 21 21 22 21 20 21 23 24 24 24 23 22 21 18 18 20 18 20 22 22 22 21 21 24 22 20 21 18 17 19 18 17 15 15 18 19 20 22
19 20 19 19 20 20 20 21 21 21 22 22 22 22 22 21 20 21 22 22 22 22 21 20 21 21 21 22 22 22 22 22 22 22 22 23 23 23 24 25 25 27 28 27 25 25 25 24 23 21 20 21 21 20 22 23 24 25 25 24 22 21 21 19 19 19 16 17 19 18 18 19 22 23 21 20 20 17 17 20 21 19 16 15 16 16 17 19
19 19 19 19 19 20 20 20 21 21 21 21 22 21 21 21 21 21 21 21 21 21 20 20 21 21 21 21 22 23 22 21 22 22 22 23 23 23 24 25 26 26 27 27 26 25 25 25 24 21 21 23 23 23 25 25 24 24 23 23 20 19 21 21 19 18 18 19 19 16 14 17 21 23 22 20 19 17 18 20 22 22 18 16 16 16 16 17
18 18 18 18 18 19 19 20 20 20 20 21 21 21 21 21 21 20 20 20 21 21 21 21 22 22 22 21 22 23 23 22 22 22 21 22 23 23 23 24 25 26 27 27 26 26 25 25 24 23 23 25 26 26 26 27 26 22 20 20 18 19 22 21 18 18 18 19 19 16 13 15 20 23 22 21 20 19 19 20 21 21 20 20 19 19 19 19
17 17 17 17 17 18 18 19 19 19 19 20 20 20 20 20 20 19 20 20 20 21 21 21 22 22 22 22 22 23 23 23 22 22 22 21 22 22 22 22 22 24 25 26 27 27 27 26 25 24 24 26 27 28 27 27 26 23 21 19 17 19 21 21 21 20 19 18 17 15 13 15 21 22 19 20 21 20 20 21 22 21 21 23 23 23 23 23
16 16 16 16 17 17 18 18 18 18 18 19 19 19 19 19 19 19 19 20 20 21 22 22 22 23 23 23 23 23 24 24 23 23 23 22 22 22 22 22 22 22 23 24 26 27 27 26 25 24 24 26 27 28 27 26 25 24 23 21 20 21 19 18 19 20 18 17 15 14 14 15 19 18 18 21 22 22 22 22 24 25 24 24 25 26 26 27
15 15 15 16 16 16 16 17 17 17 17 18 18 18 18 18 18 18 18 19 20 21 21 21 22 23 23 24 23 24 25 25 24 24 24 24 23 22 22 22 22 22 22 23 24 26 26 27 25 24 24 25 26 28 27 26 25 25 25 23 21 22 21 19 20 20 18 16 14 14 15 15 15 14 17 21 22 23 23 22 24 27 27 27 28 29 29 29
15 15 15 15 15 15 15 15 15 15 16 16 17 17 17 17 17 17 17 18 19 20 21 21 22 23 23 24 24 24 25 26 26 25 25 26 25 24 24 23 23 23 23 23 23 24 25 25 25 24 23 23 26 29 29 28 26 24 24 23 22 22 22 22 22 21 20 19 17 16 16 16 13 12 16 20 23 25 24 21 21 23 25 28 29 30 30 30
14 14 13 13 14 14 14 14 14 15 15 15 16 16 16 16 16 16 17 18 19 19 20 21 22 22 23 23 24 24 25 25 27 26 26 27 28 26 25 24 24 24 25 25 24 23 23 23 24 25 23 24 26 28 29 29 28 26 25 24 23 23 24 23 21 20 21 22 21 20 19 16 12 11 14 18 23 26 26 24 21 20 21 23 24 24 25 26
13 12 12 13 13 13 13 13 14 14 14 14 15 14 15 15 14 14 15 16 17 18 20 21 22 23 24 24 24 25 24 23 25 27 27 28 29 28 26 25 25 25 26 27 26 25 25 25 25 25 24 25 26 27 29 30 29 30 29 27 25 24 24 24 23 21 21 22 21 20 20 17 13 13 13 15 19 22 23 23 22 21 21 21 23 23 24 26
12 12 12 12 12 13 13 13 13 14 13 13 13 13 13 13 13 13 14 15 16 18 19 21 22 23 24 25 25 25 25 24 24 26 28 29 29 28 28 27 27 26 26 26 26 26 26 26 25 25 26 27 27 28 29 30 31 32 31 28 27 26 26 25 25 24 24 25 23 20 19 17 15 15 15 15 16 16 17 18 19 20 21 23 24 25 26 28
12 12 12 12 12 12 12 12 12 12 12 12 12 12 13 13 13 13 14 15 17 18 19 20 21 23 24 26 26 26 26 25 23 25 28 29 29 28 28 28 29 28 26 25 24 25 26 25 25 26 28 28 28 28 28 28 29 31 31 30 28 28 28 27 26 25 25 26 25 23 21 18 16 15 15 15 15 14 15 16 17 19 20 22 24 25 26 27
12 12 12 12 12 11 11 11 11 11 11 12 12 13 13 13 14 14 14 16 17 18 19 19 20 22 24 25 27 27 27 25 25 27 28 28 28 28 28 28 28 27 26 25 23 23 25 25 24 26 28 29 28 28 27 27 27 28 30 31 30 29 29 30 29 27 27 27 25 24 23 20 17 15 13 13 13 13 13 14 16 17 19 20 21 22 23 24
12 12 12 11 11 10 10 10 10 11 11 11 12 12 13 13 14 14 15 16 17 18 18 19 19 20 21 23 25 26 28 27 26 28 29 29 28 28 28 28 27 26 25 24 24 23 23 24 24 25 27 29 29 29 28 28 28 29 30 30 31 31 30 31 30 29 29 28 25 23 23 21 19 17 15 14 14 13 12 12 13 15 16 18 19 20 21 21
12 11 11 11 10 9 10 9 10 10 10 10 10 10 11 12 13 14 15 16 17 18 19 19 19 18 18 19 21 23 26 27 27 28 30 30 29 28 28 28 27 26 25 24 25 25 24 23 23 25 27 29 30 30 30 30 31 31 30 31 31 32 32 31 31 29 29 29 26 23 22 21 19 19 18 18 17 16 15 13 12 12 14 15 17 18 19 20
12 11 10 10 10 9 9 9 9 9 9 9 9 9 10 11 11 12 13 14 16 17 19 20 20 19 19 19 19 20 22 25 27 29 30 30 30 30 29 27 26 26 26 25 25 25 25 24 23 24 25 29 33 34 32 32 34 33 32 31 32 33 33 33 32 30 30 30 29 26 24 22 20 19 20 19 19 18 16 15 14 13 12 14 15 16 18 19
12 11 10 10 9 9 8 8 8 8 8 8 8 8 8 9 10 11 12 13 14 14 16 18 20 20 21 21 22 22 22 23 25 27 29 31 31 30 29 28 26 25 25 25 25 26 26 25 24 23 22 23 28 33 35 35 34 34 33 32 32 33 34 33 32 31 30 30 30 29 27 24 22 21 20 20 20 19 18 17 16 15 14 14 15 15 16 17
11 11 10 9 9 8 8 7 7 6 7 7 7 6 7 7 8 9 11 12 13 13 14 15 16 18 21 22 23 24 24 24 25 26 28 30 32 31 31 31 28 26 25 23 23 26 27 25 24 24 23 19 18 22 29 35 36 34 33 33 33 34 34 34 33 32 31 31 31 30 29 27 25 23 22 21 21 20 20 19 18 18 17 16 16 16 16 16
11 10 10 9 8 8 7 6 5 6 6 6 5 5 5 6 7 8 10 11 12 12 13 14 15 18 20 23 25 26 26 27 27 27 28 29 31 32 32 31 29 29 27 21 19 24 26 26 26 25 24 21 16 13 17 26 34 36 35 35 34 34 34 34 34 33 32 32 32 32 31 29 27 25 23 22 21 21 20 20 20 20 19 18 18 18 17 16
Wind_Direction
246 245 244 243 243 243 243 243 244 245 247 248 249 249 250 250 250 250 250 250 249 248 247 247 246 245 245 245 245 244 243 242 242 240 239 238 238 239 240 242 243 245 246 247 247 248 249 249 250 250 251 252 253 254 255 256 256 256 256 256 257 255 255 256 257 259 262 264 263 263 263 260 257 253 250 248 246 245 246 247 243 241 241 239 239 238 238 239
244 244 243 243 242 242 242 243 243 244 245 246 247 248 248 248 248 248 248 247 247 247 246 245 245 244 244 244 244 243 242 242 242 241 240 239 239 239 240 241 242 243 244 244 245 246 247 248 249 250 251 252 253 254 255 256 256 256 257 257 257 256 257 258 259 260 262 263 263 263 262 260 257 253 249 246 245 245 244 245 245 241 241 240 238 238 237 238
242 242 242 241 241 241 242 242 243 243 244 245 245 246 246 246 246 246 245 245 245 245 245 244 243 243 243 242 243 242 242 241 241 241 241 240 240 240 240 241 241 242 242 242 243 244 245 247 249 250 251 252 253 254 256 257 257 257 258 258 258 258 259 259 259 260 262 263 262 261 260 259 257 252 249 245 243 245 245 243 244 242 239 238 238 238 238 238
240 240 239 239 239 240 241 241 242 243 244 244 244 245 245 245 245 245 244 244 243 243 243 243 243 242 242 242 242 242 242 242 241 241 240 240 241 241 241 241 241 241 241 242 242 244 245 247 249 251 252 254 255 256 257 258 259 259 259 259 260 260 260 260 260 260 261 262 261 261 260 258 256 251 247 243 240 241 244 243 243 243 242 240 239 239 239 240
237 237 237 236 236 237 238 240 241 243 243 244 244 244 244 244 244 244 244 243 243 243 243 243 243 242 242 243 243 242 242 242 242 241 241 240 240 241 241 241 241 241 241 242 243 245 246 248 250 252 254 256 257 258 259 260 260 261 261 261 261 261 260 260 259 259 260 261 262 260 259 256 254 249 244 242 238 236 238 241 243 244 244 244 244 245 245 246
235 235 234 234 234 234 235 237 239 240 242 243 243 244 244 244 243 243 243 243 243 243 243 243 243 243 243 243 243 242 243 243 242 241 241 240 239 240 240 240 241 242 242 243 245 246 248 250 252 254 255 257 259 261 261 261 261 261 261 261 261 260 259 258 258 258 258 260 260 258 257 254 251 246 242 240 239 237 237 239 242 244 245 247 248 250 251 252
235 234 234 234 234 235 235 236 237 239 240 241 242 243 243 243 243 243 243 243 243 243 243 243 243 244 244 245 244 243 243 243 242 241 240 239 238 239 239 240 241 243 244 245 246 247 249 251 253 255 257 259 261 263 263 263 262 261 261 260 259 259 258 259 259 258 257 257 258 256 254 252 249 245 242 240 239 239 237 238 241 243 244 245 247 249 251 254
234 235 236 236 237 238 239 239 240 240 241 241 242 242 243 243 243 243 243 243 243 243 244 244 244 245 245 246 246 245 243 243 242 241 240 239 239 238 239 240 241 243 244 245 246 248 250 252 255 258 260 261 262 263 263 263 262 261 259 258 258 259 259 259 259 257 254 255 255 253 252 250 248 245 241 239 238 237 236 237 240 241 243 244 247 250 253 256
235 236 237 239 241 243 244 245 245 245 244 244 244 244 244 244 244 244 243 244 244 244 244 244 245 245 245 245 245 245 243 242 241 240 240 240 240 239 240 240 241 242 244 245 247 249 253 256 258 260 262 262 262 261 261 261 261 260 259 258 259 258 257 255 253 252 251 251 251 249 249 249 247 244 241 238 238 236 235 236 239 242 243 245 248 250 254 257
234 236 239 242 245 247 249 250 250 249 248 248 247 247 246 246 245 245 244 244 244 244 244 245 245 245 245 244 244 244 243 243 243 242 242 242 242 241 241 241 242 243 244 246 249 252 255 258 261 262 263 263 263 262 261 260 258 258 258 258 258 256 253 248 247 248 246 246 247 245 247 249 246 243 240 237 237 236 234 235 239 241 243 245 247 250 253 257
234 236 239 244 247 251 253 254 253 252 251 250 250 249 249 248 247 247 246 246 246 246 245 245 246 246 246 245 246 246 245 245 245 245 244 244 244 244 243 243 243 245 246 248 250 253 257 260 263 264 265 266 265 264 262 260 259 259 258 258 258 256 252 245 243 245 241 240 243 244 245 247 245 243 240 237 236 235 234 235 238 241 242 244 247 250 255 257
233 235 238 243 248 252 255 256 256 254 253 252 250 250 250 249 248 248 247 247 247 247 247 247 247 247 248 247 247 248 248 248 248 248 247 246 246 246 246 245 246 246 248 250 251 254 257 260 262 264 265 265 265 264 263 262 261 259 258 257 256 255 250 242 240 242 239 236 240 243 242 243 244 243 242 238 235 235 235 235 238 241 243 246 248 251 255 258
233 234 237 241 246 251 255 257 258 257 255 253 251 250 249 249 248 248 247 247 247 247 248 249 249 249 249 248 248 249 249 249 249 249 249 248 248 247 247 247 247 247 248 250 252 253 255 258 260 262 263 264 264 264 263 262 260 258 257 255 253 251 250 244 239 240 238 236 239 239 236 236 241 241 240 239 235 235 236 237 239 241 244 246 248 252 255 260
233 234 236 239 243 249 254 258 259 259 257 255 253 251 249 248 248 247 247 247 247 247 248 248 249 249 249 248 248 248 249 249 249 250 250 250 249 248 248 248 248 248 249 250 250 250 252 254 257 259 261 263 265 264 262 259 258 256 254 253 250 247 251 249 239 236 236 237 237 236 228 226 235 239 238 238 236 236 237 238 240 241 242 245 247 252 256 260
232 234 235 237 241 246 252 257 260 261 260 257 255 253 250 249 247 247 247 247 246 246 246 247 248 248 249 249 247 247 249 250 250 250 251 252 252 252 251 250 250 250 250 250 250 250 251 254 256 258 260 261 262 262 260 258 256 255 253 253 250 246 251 249 239 235 235 236 236 235 228 224 235 240 237 238 238 236 239 241 242 243 243 243 244 249 254 259
232 233 235 236 240 245 251 257 260 262 262 260 257 254 252 250 248 247 247 246 246 245 245 246 246 247 248 249 249 248 248 251 252 251 252 253 253 254 253 252 251 251 250 250 251 251 252 253 254 256 257 258 259 259 259 258 256 256 255 253 247 245 248 246 240 237 235 234 234 234 228 225 235 239 236 237 238 238 239 241 243 245 244 241 241 245 252 260
232 233 234 236 239 243 250 255 260 262 263 262 259 256 254 252 250 248 247 246 244 244 244 245 245 246 247 248 249 249 248 249 251 252 252 252 253 253 253 252 252 252 251 251 251 251 251 252 253 253 254 255 256 256 257 257 257 257 256 252 246 243 242 242 241 237 234 234 233 233 230 229 236 238 234 235 237 238 239 241 242 242 242 241 243 247 252 258
232 233 234 236 238 243 248 254 258 261 263 263 261 257 255 254 253 250 247 245 244 243 242 242 243 244 245 247 249 251 250 248 250 252 253 252 252 253 253 253 254 253 253 252 251 251 251 251 251 251 252 253 253 253 253 254 256 254 252 250 248 243 237 237 240 237 234 235 234 234 233 232 236 237 234 234 235 236 237 239 240 241 241 241 245 249 250 254
232 234 235 236 239 243 248 253 258 261 262 263 262 259 255 254 253 251 249 246 244 242 241 241 242 244 245 246 248 250 251 250 249 251 253 253 253 253 254 254 254 254 254 253 252 251 250 250 250 251 253 252 252 251 251 253 254 251 249 248 245 241 236 234 236 237 234 235 236 237 235 232 234 235 234 235 235 236 237 239 241 242 243 244 247 251 252 253
232 234 236 237 240 243 248 253 258 261 262 263 263 261 256 252 251 251 250 247 245 244 242 242 242 243 246 246 246 248 250 250 248 248 250 252 253 253 253 254 255 255 254 253 252 250 250 249 250 251 251 250 250 250 252 254 252 249 248 245 242 239 236 232 232 235 235 235 236 238 239 236 236 236 235 236 237 237 238 240 243 245 246 248 250 253 254 253
232 234 236 238 241 244 249 254 258 261 263 264 263 260 256 252 249 248 248 247 246 244 243 241 240 241 243 244 243 244 245 245 246 246 247 249 252 253 253 253 254 253 252 252 251 249 249 250 250 249 248 248 249 250 253 254 251 248 246 244 242 240 238 233 230 233 236 236 237 239 240 239 237 237 236 236 238 239 240 241 244 246 247 248 250 252 253 254
233 235 237 240 243 246 250 254 258 261 262 263 262 259 255 251 248 246 245 245 245 244 241 240 239 239 240 239 241 243 245 246 247 248 248 248 250 252 253 252 252 251 251 251 251 249 249 248 246 245 245 246 247 249 250 249 247 246 245 244 242 241 239 235 231 232 235 236 237 239 241 240 238 238 239 239 238 240 241 240 241 242 243 244 244 247 250 253
237 238 240 242 245 248 251 254 257 259 260 261 261 258 254 250 248 245 243 242 243 241 240 239 237 238 240 240 242 245 246 246 246 246 246 247 248 250 250 250 250 250 250 250 250 250 249 247 245 245 245 245 246 248 247 245 243 241 242 241 240 241 239 236 234 233 235 237 236 240 243 243 242 242 243 243 240 240 241 240 239 240 242 242 240 239 242 247
239 241 243 245 248 250 252 254 256 257 258 258 258 256 252 249 246 242 240 240 243 240 237 238 238 238 239 240 241 243 242 241 241 242 242 244 245 246 246 246 247 249 249 249 250 249 248 247 246 246 245 245 246 246 245 242 240 239 238 237 238 241 238 236 237 234 234 239 239 241 246 246 245 246 245 244 241 240 242 241 239 239 240 241 239 238 240 243
240 243 245 247 248 249 251 253 254 255 255 255 254 253 250 247 243 240 236 237 242 242 235 233 236 236 237 237 238 240 240 238 237 239 240 240 242 242 243 243 244 246 247 247 248 247 246 245 245 246 246 246 245 244 242 239 237 237 237 235 236 240 239 236 238 237 235 240 243 243 246 249 248 245 244 244 242 239 240 240 238 237 237 238 238 237 238 239
241 242 244 245 247 248 250 252 253 253 253 252 251 250 247 244 239 236 234 233 238 242 237 230 229 231 235 236 236 237 238 236 233 235 238 239 240 242 243 243 242 244 245 246 247 246 246 245 244 246 246 245 245 242 239 236 235 235 235 235 236 238 240 238 237 237 236 240 244 243 245 249 249 245 241 241 240 237 239 238 236 236 237 237 237 235 233 233
239 240 242 243 246 248 249 250 251 251 250 249 248 246 244 241 237 234 232 230 234 240 238 233 229 227 230 233 235 236 237 235 233 233 235 237 240 242 243 244 243 244 245 246 246 246 246 244 244 245 245 244 242 237 234 233 231 231 232 233 236 237 239 240 236 234 235 240 245 245 244 244 249 252 247 240 236 235 237 235 233 235 238 239 237 232 230 228
237 239 241 243 245 247 247 248 249 249 247 245 244 243 241 238 235 233 230 228 232 237 238 236 233 230 227 228 231 236 237 237 234 234 233 234 237 239 240 242 242 241 242 242 242 241 239 239 240 240 240 238 234 230 230 228 224 226 229 232 236 238 240 241 237 233 235 240 245 248 245 241 245 253 254 244 233 232 235 232 230 233 236 237 235 229 226 227
236 238 240 241 243 244 244 245 245 245 244 242 241 240 239 236 234 233 230 229 231 235 237 236 236 234 230 227 228 232 236 237 236 234 233 233 234 237 239 240 239 239 241 241 240 238 235 237 239 237 237 232 222 224 225 221 218 222 229 232 236 240 241 242 238 236 240 240 244 250 250 243 240 247 255 248 229 226 233 232 231 232 233 233 231 227 224 224
235 237 239 239 239 240 241 241 241 241 240 239 238 237 236 235 234 232 231 230 230 232 235 236 236 235 233 230 229 230 232 235 235 233 233 233 232 234 235 235 237 239 241 241 240 238 235 237 239 239 239 231 221 224 223 215 214 220 226 231 236 240 243 244 240 240 245 243 243 248 249 244 240 246 257 253 233 223 229 234 234 234 232 231 228 225 222 221
234 236 236 236 236 237 238 238 236 236 236 236 236 235 235 234 234 232 231 230 230 230 231 233 234 234 233 230 229 229 231 232 232 232 232 232 231 231 232 234 237 239 242 243 241 240 237 238 241 241 239 233 226 226 221 213 212 218 224 229 236 240 242 244 245 244 247 248 246 247 247 245 239 240 250 254 245 230 230 236 238 236 233 229 226 224 221 220
233 234 234 233 233 234 235 234 233 233 234 234 234 234 234 234 233 232 230 229 230 228 228 231 233 233 233 232 229 229 230 230 229 230 230 230 230 230 232 235 237 240 244 246 242 240 239 238 240 240 236 231 227 223 217 213 213 218 224 227 232 240 240 240 246 249 245 247 249 248 249 247 241 239 245 252 251 238 233 236 238 236 231 226 224 222 221 219
231 231 231 231 232 232 232 232 231 232 233 233 234 234 234 234 233 232 229 228 230 229 228 230 232 233 232 232 231 229 229 229 228 228 228 229 228 227 229 232 234 235 239 240 236 233 234 234 235 235 233 228 225 222 218 216 217 221 226 227 229 237 242 240 247 254 249 247 249 247 246 247 245 244 243 244 245 236 229 234 236 231 222 217 218 217 216 213
229 229 229 229 230 231 231 231 231 231 232 233 233 234 234 234 232 230 228 228 229 230 228 229 231 232 230 231 232 229 228 229 228 228 228 229 229 228 229 232 231 231 231 231 229 228 230 232 233 233 230 227 223 220 219 220 223 224 226 227 228 233 241 242 243 248 250 251 250 244 243 245 247 247 240 234 239 234 224 227 229 225 215 207 209 208 208 210
228 228 229 229 230 231 231 232 231 231 232 232 233 233 233 232 228 227 227 227 228 229 228 227 229 230 228 228 229 228 226 227 228 227 227 229 230 230 230 232 233 233 233 231 229 229 231 233 233 230 226 222 217 214 217 221 226 230 229 230 232 235 243 244 241 244 248 254 254 246 241 242 245 248 243 234 236 233 222 218 218 219 214 209 211 206 205 208
228 228 229 229 230 231 231 232 232 231 231 231 231 231 230 229 226 225 226 226 227 228 226 225 226 227 226 224 225 226 224 224 226 227 227 230 230 230 230 230 231 232 234 234 232 231 232 234 233 227 222 218 213 212 216 217 222 230 232 233 235 237 243 246 247 249 250 254 257 253 247 246 246 247 245 236 234 232 222 213 214 217 212 211 217 216 216 216
228 228 229 229 228 228 229 229 229 229 229 229 229 229 229 228 227 225 226 225 226 227 225 224 225 226 225 222 221 224 223 221 224 224 226 231 233 233 233 232 232 232 232 233 232 229 228 232 232 225 220 218 214 215 220 220 219 223 228 230 229 232 239 243 247 250 249 250 254 255 255 252 249 248 241 232 230 230 220 209 212 216 211 208 214 221 225 228
228 227 226 225 225 225 225 226 227 227 228 229 230 230 230 229 228 226 225 225 225 226 226 226 226 226 226 222 219 221 222 221 223 222 222 226 231 232 233 234 233 233 233 232 231 228 225 228 230 225 221 220 218 218 223 226 224 223 226 226 223 228 235 240 243 248 251 251 250 255 259 252 250 249 239 226 224 227 221 207 203 209 210 207 208 213 219 225
224 224 223 222 222 223 224 226 228 228 230 231 231 232 231 230 228 226 225 224 225 226 226 226 227 227 228 225 219 218 221 221 221 223 222 222 225 228 230 231 231 232 233 232 230 228 224 224 227 226 221 221 221 220 223 228 229 228 229 228 226 229 233 238 241 243 248 251 249 254 257 252 251 248 234 222 220 225 227 213 200 199 205 208 209 211 214 220
221 221 220 221 222 224 226 228 229 230 230 231 231 231 230 228 226 225 223 223 223 225 226 226 227 228 229 229 223 218 220 221 220 221 224 223 223 224 225 226 228 229 231 231 229 226 222 222 224 224 222 221 223 223 223 226 227 227 228 229 230 233 234 239 242 241 243 247 248 252 253 251 251 242 229 222 218 221 229 225 211 203 202 205 211 214 218 221
219 219 220 221 222 224 226 227 228 228 228 229 230 230 230 228 226 225 224 223 223 224 225 226 227 228 229 231 229 221 219 222 221 221 224 225 223 222 223 223 225 227 228 230 229 226 224 223 223 225 223 221 224 226 224 225 225 225 225 226 228 233 235 239 244 246 246 246 245 248 250 250 246 235 226 223 220 220 224 226 223 218 211 208 211 216 220 224
217 218 219 220 221 222 223 224 226 227 228 229 230 231 231 230 228 226 225 225 225 225 226 227 228 229 229 231 232 228 221 222 223 221 224 227 224 222 222 222 224 226 229 230 230 227 226 224 224 226 223 222 226 227 227 228 227 227 226 224 224 228 231 234 238 242 246 247 246 247 249 246 237 230 227 225 227 229 228 224 223 226 227 225 224 226 228 230
214 215 216 217 219 220 222 224 226 228 228 229 231 231 231 231 229 227 227 228 228 227 228 228 228 230 231 230 233 232 227 223 223 221 223 227 227 225 225 224 224 227 231 231 230 228 225 222 223 226 226 226 229 229 229 230 229 229 230 229 228 229 232 234 236 239 244 246 244 245 249 247 234 229 230 227 231 239 241 236 230 227 230 235 238 239 240 242
210 213 214 216 218 220 222 224 225 227 226 226 228 230 232 234 232 230 231 231 232 232 231 230 230 230 232 232 232 233 232 229 225 223 224 226 226 227 228 228 228 230 231 231 228 227 227 224 223 226 229 230 232 232 231 231 230 230 231 232 232 232 235 239 242 243 244 247 246 243 243 242 233 228 230 229 231 238 243 245 244 240 238 239 241 243 245 248
207 212 214 216 218 219 220 221 222 223 223 224 229 233 236 238 237 236 235 235 236 236 236 235 233 232 232 233 233 234 235 233 230 228 228 226 224 225 228 229 230 230 231 231 228 226 227 227 224 225 230 232 233 234 234 233 233 233 233 233 234 234 236 239 242 242 243 247 249 247 244 243 238 233 232 232 230 231 236 240 242 245 244 243 244 246 247 249
205 210 212 214 216 216 216 217 219 222 225 230 234 238 241 243 242 241 238 238 239 240 239 238 235 233 233 233 233 234 234 234 232 233 233 231 227 226 226 227 228 229 231 233 233 230 229 228 225 226 230 232 231 231 232 234 235 236 235 235 235 236 237 239 240 241 243 246 248 248 250 251 248 243 239 236 233 232 237 240 240 241 241 241 242 243 244 247
203 206 208 209 211 213 214 217 221 225 230 234 237 241 245 248 249 247 244 241 240 238 238 236 234 231 230 231 232 232 234 235 235 236 236 235 233 231 229 227 226 228 230 232 232 232 232 231 229 229 233 234 233 232 232 233 233 234 235 236 236 236 237 239 241 241 243 248 249 247 250 253 252 250 249 249 247 242 238 238 240 240 240 240 240 242 244 249
200 201 203 205 207 211 215 217 221 226 232 239 243 248 251 254 254 251 247 243 240 236 234 232 232 231 229 229 229 229 231 232 232 233 234 235 236 235 232 229 226 226 228 229 229 230 232 234 233 234 237 237 235 234 234 234 234 234 234 234 235 236 236 237 240 242 245 249 250 248 250 254 253 251 252 252 251 247 241 238 238 239 239 240 242 245 250 253
195 197 199 203 206 212 216 217 221 228 236 243 249 252 256 259 259 254 249 243 238 235 232 230 230 232 233 235 232 229 229 229 230 232 232 234 235 235 234 232 230 229 227 226 227 230 232 234 237 240 243 241 236 234 234 235 235 235 234 233 234 235 236 237 239 242 244 247 250 251 252 254 254 251 251 252 251 250 246 242 241 240 239 240 243 248 252 255
191 193 196 201 204 209 213 218 223 230 238 245 249 255 261 265 263 256 248 241 236 233 233 232 232 234 239 242 240 237 235 232 232 233 232 233 234 234 232 229 228 229 227 226 230 232 231 232 236 241 244 241 236 233 232 233 234 234 233 233 234 235 236 238 239 241 242 245 247 249 250 252 253 252 251 251 252 252 252 250 248 245 242 242 244 248 252 255
187 190 194 196 199 203 208 216 225 234 244 249 253 264 274 272 262 251 243 239 237 237 239 240 240 243 248 249 247 244 240 236 233 231 230 231 231 233 232 228 226 225 223 226 232 230 229 232 234 236 239 239 239 236 230 228 230 232 232 232 234 235 236 237 238 239 241 243 245 246 248 249 251 251 251 250 250 251 252 253 252 248 244 244 246 248 250 253
186 188 191 192 195 201 204 211 228 242 249 250 257 280 289 276 257 246 242 240 238 239 243 248 252 253 252 250 247 244 240 236 232 228 228 228 228 230 231 230 229 223 218 225 236 230 228 229 226 228 233 236 243 249 236 228 228 229 231 232 234 236 237 238 238 239 240 241 243 244 246 248 249 250 249 249 250 250 249 250 250 248 245 244 246 248 250 252